contact:dominique.lefevre@mio.osupytheas.fr, maurice.libes@osupytheas.fr, didier.mallarino@osupytheas.fr
Project:EMSO http://www.emso-fr.org/EMSO-France
Depth: 2436.0 m
Title:EMSO Ligure Ouest : Data MII capteur CSTAR
DateTime,Latitude,Longitude,Instrument_Serial,Reference_Counts,Signal_Counts,Corrected_Signal_raw_counts,Calculated_Beam_c_inverse_meters,Internal_thermistor_counts
DateTime,Latitude,Longitude,Instrument_Serial,Reference_Counts,Signal_Counts,Corrected_Signal_raw_counts,Calculated_Beam_c_inverse_meters,Internal_thermistor_counts
2019-09-30T00:02:56,42.805,6.029,CST-1368DR,7731,10827,15356,0.067,550
2019-09-30T00:05:58,42.805,6.029,CST-1368DR,7731,10827,15356,0.067,551
2019-09-30T00:08:59,42.805,6.029,CST-1368DR,7731,10827,15356,0.067,550
2019-09-30T00:12:01,42.805,6.029,CST-1368DR,7731,10827,15356,0.067,551
2019-09-30T00:15:02,42.805,6.029,CST-1368DR,7731,10825,15353,0.068,551
2019-09-30T00:18:04,42.805,6.029,CST-1368DR,7731,10826,15355,0.067,551
2019-09-30T00:21:06,42.805,6.029,CST-1368DR,7731,10824,15352,0.068,551
2019-09-30T00:24:07,42.805,6.029,CST-1368DR,7731,10827,15357,0.067,551
2019-09-30T00:27:09,42.805,6.029,CST-1368DR,7731,10825,15354,0.068,551
2019-09-30T00:30:11,42.805,6.029,CST-1368DR,7731,10824,15352,0.068,550
2019-09-30T00:33:12,42.805,6.029,CST-1368DR,7731,10824,15352,0.068,551
2019-09-30T00:36:14,42.805,6.029,CST-1368DR,7731,10824,15352,0.068,551
2019-09-30T00:39:16,42.805,6.029,CST-1368DR,7731,10825,15353,0.068,551
2019-09-30T00:42:17,42.805,6.029,CST-1368DR,7731,10823,15351,0.068,551
2019-09-30T00:45:19,42.805,6.029,CST-1368DR,7731,10824,15352,0.068,551
2019-09-30T00:48:21,42.805,6.029,CST-1368DR,7731,10825,15354,0.068,550
2019-09-30T00:51:22,42.805,6.029,CST-1368DR,7731,10818,15343,0.071,551
2019-09-30T00:54:24,42.805,6.029,CST-1368DR,7731,10821,15348,0.069,550
2019-09-30T00:57:25,42.805,6.029,CST-1368DR,7731,10826,15354,0.068,550
2019-09-30T01:00:27,42.805,6.029,CST-1368DR,7731,10825,15354,0.068,551
2019-09-30T01:03:29,42.805,6.029,CST-1368DR,7731,10826,15355,0.067,551
2019-09-30T01:06:30,42.805,6.029,CST-1368DR,7731,10822,15349,0.069,551
2019-09-30T01:09:32,42.805,6.029,CST-1368DR,7731,10825,15354,0.068,551
2019-09-30T01:12:34,42.805,6.029,CST-1368DR,7731,10822,15349,0.069,551
2019-09-30T01:15:35,42.805,6.029,CST-1368DR,7731,10825,15354,0.068,551
2019-09-30T01:18:37,42.805,6.029,CST-1368DR,7731,10824,15351,0.068,551
2019-09-30T01:21:39,42.805,6.029,CST-1368DR,7731,10820,15346,0.070,551
2019-09-30T01:24:40,42.805,6.029,CST-1368DR,7731,10825,15354,0.068,551
2019-09-30T01:27:42,42.805,6.029,CST-1368DR,7731,10826,15355,0.067,550
2019-09-30T01:30:44,42.805,6.029,CST-1368DR,7731,10824,15352,0.068,551
2019-09-30T01:33:45,42.805,6.029,CST-1368DR,7730,10825,15355,0.067,551
2019-09-30T01:36:47,42.805,6.029,CST-1368DR,7730,10823,15352,0.068,551
2019-09-30T01:39:48,42.805,6.029,CST-1368DR,7730,10824,15354,0.068,551
2019-09-30T01:42:50,42.805,6.029,CST-1368DR,7730,10826,15357,0.067,551
2019-09-30T01:45:52,42.805,6.029,CST-1368DR,7730,10824,15353,0.068,551
2019-09-30T01:48:53,42.805,6.029,CST-1368DR,7730,10822,15351,0.068,551
2019-09-30T01:51:55,42.805,6.029,CST-1368DR,7730,10822,15351,0.068,550
2019-09-30T01:54:57,42.805,6.029,CST-1368DR,7730,10824,15353,0.068,551
2019-09-30T01:57:58,42.805,6.029,CST-1368DR,7730,10821,15349,0.069,551
2019-09-30T02:01:00,42.805,6.029,CST-1368DR,7730,10824,15354,0.068,551
2019-09-30T02:04:02,42.805,6.029,CST-1368DR,7730,10823,15353,0.068,551
2019-09-30T02:07:03,42.805,6.029,CST-1368DR,7730,10824,15354,0.068,551
2019-09-30T02:10:05,42.805,6.029,CST-1368DR,7730,10824,15354,0.068,551
2019-09-30T02:13:06,42.805,6.029,CST-1368DR,7730,10824,15354,0.068,550
2019-09-30T02:16:08,42.805,6.029,CST-1368DR,7730,10824,15353,0.068,551
2019-09-30T02:19:10,42.805,6.029,CST-1368DR,7730,10824,15353,0.068,551
2019-09-30T02:22:11,42.805,6.029,CST-1368DR,7730,10825,15356,0.067,550
2019-09-30T02:25:13,42.805,6.029,CST-1368DR,7730,10823,15352,0.068,551
2019-09-30T02:28:15,42.805,6.029,CST-1368DR,7730,10824,15354,0.068,551
2019-09-30T02:31:16,42.805,6.029,CST-1368DR,7730,10823,15353,0.068,550
2019-09-30T02:34:18,42.805,6.029,CST-1368DR,7730,10823,15352,0.068,551
2019-09-30T02:37:19,42.805,6.029,CST-1368DR,7730,10820,15349,0.069,551
2019-09-30T02:40:21,42.805,6.029,CST-1368DR,7730,10822,15350,0.069,551
2019-09-30T02:43:23,42.805,6.029,CST-1368DR,7730,10823,15353,0.068,551
2019-09-30T02:46:24,42.805,6.029,CST-1368DR,7730,10823,15352,0.068,551
2019-09-30T02:49:26,42.805,6.029,CST-1368DR,7730,10825,15355,0.067,550
2019-09-30T02:52:28,42.805,6.029,CST-1368DR,7730,10824,15354,0.068,551
2019-09-30T02:55:29,42.805,6.029,CST-1368DR,7730,10823,15353,0.068,551
2019-09-30T02:58:31,42.805,6.029,CST-1368DR,7730,10822,15351,0.068,551
2019-09-30T03:01:33,42.805,6.029,CST-1368DR,7730,10822,15351,0.068,551
2019-09-30T03:04:35,42.805,6.029,CST-1368DR,7730,10824,15354,0.068,551
2019-09-30T03:07:36,42.805,6.029,CST-1368DR,7730,10824,15354,0.068,550
2019-09-30T03:10:38,42.805,6.029,CST-1368DR,7730,10823,15352,0.068,551
2019-09-30T03:13:40,42.805,6.029,CST-1368DR,7730,10822,15351,0.068,551
2019-09-30T03:16:42,42.805,6.029,CST-1368DR,7730,10823,15352,0.068,551
2019-09-30T03:19:43,42.805,6.029,CST-1368DR,7730,10822,15351,0.068,551
2019-09-30T03:22:45,42.805,6.029,CST-1368DR,7730,10822,15351,0.068,551
2019-09-30T03:25:47,42.805,6.029,CST-1368DR,7730,10821,15350,0.069,551
2019-09-30T03:28:48,42.805,6.029,CST-1368DR,7730,10822,15351,0.068,551
2019-09-30T03:31:50,42.805,6.029,CST-1368DR,7729,10815,15343,0.071,551
2019-09-30T03:34:52,42.805,6.029,CST-1368DR,7730,10821,15349,0.069,551
2019-09-30T03:37:53,42.805,6.029,CST-1368DR,7730,10822,15351,0.068,551
2019-09-30T03:40:55,42.805,6.029,CST-1368DR,7730,10821,15350,0.069,550
2019-09-30T03:43:57,42.805,6.029,CST-1368DR,7730,10824,15353,0.068,551
2019-09-30T03:46:58,42.805,6.029,CST-1368DR,7730,10824,15354,0.068,551
2019-09-30T03:50:00,42.805,6.029,CST-1368DR,7730,10823,15353,0.068,551
2019-09-30T03:53:01,42.805,6.029,CST-1368DR,7729,10818,15348,0.069,551
2019-09-30T03:56:03,42.805,6.029,CST-1368DR,7729,10821,15352,0.068,551
2019-09-30T03:59:05,42.805,6.029,CST-1368DR,7729,10819,15348,0.069,551
2019-09-30T04:02:06,42.805,6.029,CST-1368DR,7729,10824,15355,0.067,551
2019-09-30T04:05:08,42.805,6.029,CST-1368DR,7729,10825,15357,0.067,551
2019-09-30T04:08:10,42.805,6.029,CST-1368DR,7729,10823,15355,0.067,551
2019-09-30T04:11:11,42.805,6.029,CST-1368DR,7729,10822,15353,0.068,550
2019-09-30T04:14:13,42.805,6.029,CST-1368DR,7729,10822,15353,0.068,551
2019-09-30T04:17:14,42.805,6.029,CST-1368DR,7729,10822,15353,0.068,551
2019-09-30T04:20:16,42.805,6.029,CST-1368DR,7729,10824,15356,0.067,551
2019-09-30T04:23:18,42.805,6.029,CST-1368DR,7729,10823,15355,0.067,551
2019-09-30T04:26:19,42.805,6.029,CST-1368DR,7729,10822,15353,0.068,551
2019-09-30T04:29:21,42.805,6.029,CST-1368DR,7729,10822,15353,0.068,551
2019-09-30T04:32:23,42.805,6.029,CST-1368DR,7729,10824,15355,0.067,551
2019-09-30T04:35:24,42.805,6.029,CST-1368DR,7729,10822,15353,0.068,551
2019-09-30T04:38:26,42.805,6.029,CST-1368DR,7729,10823,15354,0.068,551
2019-09-30T04:41:28,42.805,6.029,CST-1368DR,7729,10821,15352,0.068,551
2019-09-30T04:44:29,42.805,6.029,CST-1368DR,7729,10822,15353,0.068,551
2019-09-30T04:47:31,42.805,6.029,CST-1368DR,7729,10819,15348,0.069,551
2019-09-30T04:50:33,42.805,6.029,CST-1368DR,7729,10821,15352,0.068,551
2019-09-30T04:53:34,42.805,6.029,CST-1368DR,7729,10821,15351,0.068,551
2019-09-30T04:56:36,42.805,6.029,CST-1368DR,7729,10821,15351,0.068,551
2019-09-30T04:59:38,42.805,6.029,CST-1368DR,7729,10820,15350,0.069,551
2019-09-30T05:02:39,42.805,6.029,CST-1368DR,7729,10822,15352,0.068,551
2019-09-30T05:05:41,42.805,6.029,CST-1368DR,7729,10822,15353,0.068,551
2019-09-30T05:08:43,42.805,6.029,CST-1368DR,7729,10822,15353,0.068,551
2019-09-30T05:11:44,42.805,6.029,CST-1368DR,7729,10821,15351,0.068,551
2019-09-30T05:14:46,42.805,6.029,CST-1368DR,7729,10821,15352,0.068,551
2019-09-30T05:17:47,42.805,6.029,CST-1368DR,7729,10818,15347,0.070,551
2019-09-30T05:20:49,42.805,6.029,CST-1368DR,7729,10823,15354,0.068,551
2019-09-30T05:23:51,42.805,6.029,CST-1368DR,7729,10823,15354,0.068,551
2019-09-30T05:26:52,42.805,6.029,CST-1368DR,7729,10822,15352,0.068,551
2019-09-30T05:29:54,42.805,6.029,CST-1368DR,7729,10820,15350,0.069,551
2019-09-30T05:32:56,42.805,6.029,CST-1368DR,7729,10820,15350,0.069,551
2019-09-30T05:35:57,42.805,6.029,CST-1368DR,7729,10819,15349,0.069,551
2019-09-30T05:38:59,42.805,6.029,CST-1368DR,7729,10822,15353,0.068,551
2019-09-30T05:42:01,42.805,6.029,CST-1368DR,7728,10819,15351,0.068,551
2019-09-30T05:45:03,42.805,6.029,CST-1368DR,7729,10821,15351,0.068,551
2019-09-30T05:48:04,42.805,6.029,CST-1368DR,7729,10818,15347,0.070,551
2019-09-30T05:51:06,42.805,6.029,CST-1368DR,7728,10800,15324,0.076,551
2019-09-30T05:54:08,42.805,6.029,CST-1368DR,7729,10820,15350,0.069,551
2019-09-30T05:57:09,42.805,6.029,CST-1368DR,7729,10822,15352,0.068,551
2019-09-30T06:00:11,42.805,6.029,CST-1368DR,7728,10822,15354,0.068,551
2019-09-30T06:03:12,42.805,6.029,CST-1368DR,7728,10821,15353,0.068,551
2019-09-30T06:06:14,42.805,6.029,CST-1368DR,7728,10820,15352,0.068,551
2019-09-30T06:09:16,42.805,6.029,CST-1368DR,7728,10820,15352,0.068,551
2019-09-30T06:12:17,42.805,6.029,CST-1368DR,7728,10812,15341,0.071,551
2019-09-30T06:15:19,42.805,6.029,CST-1368DR,7728,10821,15353,0.068,551
2019-09-30T06:18:21,42.805,6.029,CST-1368DR,7728,10821,15353,0.068,551
2019-09-30T06:21:22,42.805,6.029,CST-1368DR,7728,10819,15351,0.068,550
2019-09-30T06:24:24,42.805,6.029,CST-1368DR,7728,10820,15352,0.068,551
2019-09-30T06:27:25,42.805,6.029,CST-1368DR,7728,10820,15352,0.068,551
2019-09-30T06:30:27,42.805,6.029,CST-1368DR,7728,10822,15355,0.067,550
2019-09-30T06:33:29,42.805,6.029,CST-1368DR,7728,10820,15352,0.068,551
2019-09-30T06:36:30,42.805,6.029,CST-1368DR,7728,10821,15353,0.068,550
2019-09-30T06:39:32,42.805,6.029,CST-1368DR,7728,10821,15353,0.068,551
2019-09-30T06:42:34,42.805,6.029,CST-1368DR,7728,10818,15348,0.069,551
2019-09-30T06:45:35,42.805,6.029,CST-1368DR,7728,10819,15351,0.068,551
2019-09-30T06:48:37,42.805,6.029,CST-1368DR,7728,10820,15352,0.068,551
2019-09-30T06:51:39,42.805,6.029,CST-1368DR,7728,10820,15352,0.068,551
2019-09-30T06:54:40,42.805,6.029,CST-1368DR,7728,10821,15354,0.068,551
2019-09-30T06:57:42,42.805,6.029,CST-1368DR,7728,10820,15352,0.068,551
2019-09-30T07:00:43,42.805,6.029,CST-1368DR,7728,10821,15353,0.068,551
2019-09-30T07:03:45,42.805,6.029,CST-1368DR,7728,10819,15350,0.069,551
2019-09-30T07:06:47,42.805,6.029,CST-1368DR,7728,10820,15352,0.068,551
2019-09-30T07:09:48,42.805,6.029,CST-1368DR,7728,10817,15347,0.070,551
2019-09-30T07:12:50,42.805,6.029,CST-1368DR,7728,10819,15350,0.069,551
2019-09-30T07:15:52,42.805,6.029,CST-1368DR,7728,10821,15353,0.068,550
2019-09-30T07:18:53,42.805,6.029,CST-1368DR,7728,10820,15352,0.068,551
2019-09-30T07:21:55,42.805,6.029,CST-1368DR,7728,10821,15353,0.068,551
2019-09-30T07:24:56,42.805,6.029,CST-1368DR,7728,10821,15353,0.068,551
2019-09-30T07:27:58,42.805,6.029,CST-1368DR,7728,10821,15353,0.068,551
2019-09-30T07:31:00,42.805,6.029,CST-1368DR,7728,10821,15354,0.068,550
2019-09-30T07:34:01,42.805,6.029,CST-1368DR,7728,10821,15353,0.068,551
2019-09-30T07:37:03,42.805,6.029,CST-1368DR,7728,10818,15349,0.069,550
2019-09-30T07:40:05,42.805,6.029,CST-1368DR,7728,10819,15351,0.068,551
2019-09-30T07:43:06,42.805,6.029,CST-1368DR,7728,10821,15354,0.068,551
2019-09-30T07:46:08,42.805,6.029,CST-1368DR,7728,10818,15349,0.069,550
2019-09-30T07:49:10,42.805,6.029,CST-1368DR,7728,10821,15354,0.068,551
2019-09-30T07:52:11,42.805,6.029,CST-1368DR,7728,10820,15352,0.068,551
2019-09-30T07:55:13,42.805,6.029,CST-1368DR,7728,10820,15352,0.068,551
2019-09-30T07:58:15,42.805,6.029,CST-1368DR,7728,10821,15353,0.068,551
2019-09-30T08:01:16,42.805,6.029,CST-1368DR,7728,10815,15345,0.070,551
2019-09-30T08:04:18,42.805,6.029,CST-1368DR,7728,10822,15354,0.068,551
2019-09-30T08:07:20,42.805,6.029,CST-1368DR,7728,10819,15350,0.069,551
2019-09-30T08:10:21,42.805,6.029,CST-1368DR,7728,10820,15352,0.068,551
2019-09-30T08:13:23,42.805,6.029,CST-1368DR,7728,10819,15351,0.068,551
2019-09-30T08:16:24,42.805,6.029,CST-1368DR,7728,10819,15350,0.069,551
2019-09-30T08:19:26,42.805,6.029,CST-1368DR,7728,10819,15351,0.068,551
2019-09-30T08:22:28,42.805,6.029,CST-1368DR,7728,10822,15354,0.068,551
2019-09-30T08:25:29,42.805,6.029,CST-1368DR,7728,10822,15354,0.068,551
2019-09-30T08:28:31,42.805,6.029,CST-1368DR,7727,10816,15347,0.070,551
2019-09-30T08:31:33,42.805,6.029,CST-1368DR,7728,10821,15353,0.068,551
2019-09-30T08:34:35,42.805,6.029,CST-1368DR,7727,10822,15356,0.067,551
2019-09-30T08:37:36,42.805,6.029,CST-1368DR,7728,10822,15354,0.068,551
2019-09-30T08:40:38,42.805,6.029,CST-1368DR,7728,10820,15352,0.068,551
2019-09-30T08:43:40,42.805,6.029,CST-1368DR,7727,10821,15355,0.067,551
2019-09-30T08:46:41,42.805,6.029,CST-1368DR,7727,10819,15352,0.068,551
2019-09-30T08:49:43,42.805,6.029,CST-1368DR,7727,10819,15353,0.068,551
2019-09-30T08:52:45,42.805,6.029,CST-1368DR,7727,10821,15355,0.067,551
2019-09-30T08:55:46,42.805,6.029,CST-1368DR,7727,10821,15355,0.067,551
2019-09-30T08:58:48,42.805,6.029,CST-1368DR,7727,10820,15354,0.068,551
2019-09-30T09:01:50,42.805,6.029,CST-1368DR,7727,10821,15355,0.067,551
2019-09-30T09:04:51,42.805,6.029,CST-1368DR,7727,10821,15355,0.067,551
2019-09-30T09:07:53,42.805,6.029,CST-1368DR,7727,10820,15354,0.068,551
2019-09-30T09:10:55,42.805,6.029,CST-1368DR,7727,10821,15355,0.067,551
2019-09-30T09:13:56,42.805,6.029,CST-1368DR,7727,10820,15353,0.068,551
2019-09-30T09:16:58,42.805,6.029,CST-1368DR,7727,10820,15354,0.068,550
2019-09-30T09:19:59,42.805,6.029,CST-1368DR,7727,10820,15353,0.068,551
2019-09-30T09:23:01,42.805,6.029,CST-1368DR,7727,10799,15324,0.076,551
2019-09-30T09:26:03,42.805,6.029,CST-1368DR,7727,10817,15349,0.069,551
2019-09-30T09:29:04,42.805,6.029,CST-1368DR,7727,10817,15350,0.069,551
2019-09-30T09:32:06,42.805,6.029,CST-1368DR,7727,10814,15345,0.070,551
2019-09-30T09:35:08,42.805,6.029,CST-1368DR,7727,10818,15351,0.068,550
2019-09-30T09:38:09,42.805,6.029,CST-1368DR,7727,10819,15352,0.068,551
2019-09-30T09:41:11,42.805,6.029,CST-1368DR,7727,10819,15352,0.068,551
2019-09-30T09:44:13,42.805,6.029,CST-1368DR,7727,10819,15352,0.068,551
2019-09-30T09:47:14,42.805,6.029,CST-1368DR,7727,10819,15352,0.068,551
2019-09-30T09:50:16,42.805,6.029,CST-1368DR,7727,10818,15351,0.068,551
2019-09-30T09:53:17,42.805,6.029,CST-1368DR,7727,10819,15352,0.068,551
2019-09-30T09:56:19,42.805,6.029,CST-1368DR,7727,10819,15352,0.068,550
2019-09-30T09:59:21,42.805,6.029,CST-1368DR,7727,10819,15352,0.068,551
2019-09-30T10:02:22,42.805,6.029,CST-1368DR,7727,10819,15352,0.068,551
2019-09-30T10:05:24,42.805,6.029,CST-1368DR,7727,10818,15351,0.068,551
2019-09-30T10:08:26,42.805,6.029,CST-1368DR,7727,10818,15351,0.068,551
2019-09-30T10:11:27,42.805,6.029,CST-1368DR,7727,10819,15352,0.068,551
2019-09-30T10:14:29,42.805,6.029,CST-1368DR,7727,10817,15349,0.069,551
2019-09-30T10:17:30,42.805,6.029,CST-1368DR,7727,10819,15353,0.068,551
2019-09-30T10:20:32,42.805,6.029,CST-1368DR,7727,10818,15351,0.068,551
2019-09-30T10:23:34,42.805,6.029,CST-1368DR,7727,10820,15353,0.068,551
2019-09-30T10:26:35,42.805,6.029,CST-1368DR,7727,10818,15351,0.068,551
2019-09-30T10:29:37,42.805,6.029,CST-1368DR,7727,10819,15353,0.068,551
2019-09-30T10:32:39,42.805,6.029,CST-1368DR,7727,10819,15353,0.068,551
2019-09-30T10:35:40,42.805,6.029,CST-1368DR,7727,10816,15347,0.070,551
2019-09-30T10:38:42,42.805,6.029,CST-1368DR,7727,10819,15352,0.068,551
2019-09-30T10:41:43,42.805,6.029,CST-1368DR,7727,10819,15352,0.068,551
2019-09-30T10:44:45,42.805,6.029,CST-1368DR,7727,10818,15351,0.068,550
2019-09-30T10:47:47,42.805,6.029,CST-1368DR,7727,10819,15352,0.068,550
2019-09-30T10:50:48,42.805,6.029,CST-1368DR,7727,10818,15351,0.068,551
2019-09-30T10:53:50,42.805,6.029,CST-1368DR,7727,10819,15352,0.068,550
2019-09-30T10:56:52,42.805,6.029,CST-1368DR,7727,10818,15351,0.068,551
2019-09-30T10:59:53,42.805,6.029,CST-1368DR,7727,10818,15351,0.068,551
2019-09-30T11:02:55,42.805,6.029,CST-1368DR,7727,10816,15347,0.070,551
2019-09-30T11:05:56,42.805,6.029,CST-1368DR,7727,10817,15349,0.069,551
2019-09-30T11:08:58,42.805,6.029,CST-1368DR,7727,10818,15351,0.068,551
2019-09-30T11:12:00,42.805,6.029,CST-1368DR,7726,10816,15350,0.069,551
2019-09-30T11:15:01,42.805,6.029,CST-1368DR,7727,10818,15351,0.068,551
2019-09-30T11:18:03,42.805,6.029,CST-1368DR,7726,10816,15349,0.069,550
2019-09-30T11:21:05,42.805,6.029,CST-1368DR,7725,10676,15153,0.120,551
2019-09-30T11:24:06,42.805,6.029,CST-1368DR,7726,10817,15351,0.068,551
2019-09-30T11:27:08,42.805,6.029,CST-1368DR,7726,10819,15354,0.068,551
2019-09-30T11:30:10,42.805,6.029,CST-1368DR,7726,10818,15353,0.068,551
2019-09-30T11:33:11,42.805,6.029,CST-1368DR,7726,10818,15353,0.068,551
2019-09-30T11:36:13,42.805,6.029,CST-1368DR,7726,10818,15352,0.068,551
2019-09-30T11:39:14,42.805,6.029,CST-1368DR,7726,10818,15352,0.068,551
2019-09-30T11:42:16,42.805,6.029,CST-1368DR,7726,10817,15351,0.068,551
2019-09-30T11:45:18,42.805,6.029,CST-1368DR,7726,10816,15350,0.069,550
2019-09-30T11:48:20,42.805,6.029,CST-1368DR,7726,10817,15351,0.068,550
2019-09-30T11:51:21,42.805,6.029,CST-1368DR,7726,10813,15346,0.070,551
2019-09-30T11:54:23,42.805,6.029,CST-1368DR,7726,10814,15347,0.070,550
2019-09-30T11:57:24,42.805,6.029,CST-1368DR,7726,10818,15353,0.068,551
2019-09-30T12:00:26,42.805,6.029,CST-1368DR,7726,10818,15353,0.068,551
2019-09-30T12:03:28,42.805,6.029,CST-1368DR,7726,10817,15351,0.068,551
2019-09-30T12:06:29,42.805,6.029,CST-1368DR,7726,10818,15353,0.068,551
2019-09-30T12:09:31,42.805,6.029,CST-1368DR,7726,10818,15353,0.068,550
2019-09-30T12:12:33,42.805,6.029,CST-1368DR,7726,10817,15351,0.068,551
2019-09-30T12:15:34,42.805,6.029,CST-1368DR,7726,10817,15351,0.068,551
2019-09-30T12:18:36,42.805,6.029,CST-1368DR,7726,10813,15346,0.070,551
2019-09-30T12:21:37,42.805,6.029,CST-1368DR,7726,10814,15347,0.070,551
2019-09-30T12:24:39,42.805,6.029,CST-1368DR,7726,10816,15350,0.069,551
2019-09-30T12:27:41,42.805,6.029,CST-1368DR,7726,10814,15347,0.070,551
2019-09-30T12:30:42,42.805,6.029,CST-1368DR,7726,10817,15351,0.068,551
2019-09-30T12:33:44,42.805,6.029,CST-1368DR,7726,10818,15352,0.068,551
2019-09-30T12:36:46,42.805,6.029,CST-1368DR,7726,10817,15351,0.068,551
2019-09-30T12:39:47,42.805,6.029,CST-1368DR,7726,10817,15351,0.068,550
2019-09-30T12:42:49,42.805,6.029,CST-1368DR,7726,10816,15350,0.069,551
2019-09-30T12:45:50,42.805,6.029,CST-1368DR,7726,10815,15348,0.069,551
2019-09-30T12:48:52,42.805,6.029,CST-1368DR,7726,10815,15348,0.069,550
2019-09-30T12:51:54,42.805,6.029,CST-1368DR,7726,10818,15353,0.068,551
2019-09-30T12:54:55,42.805,6.029,CST-1368DR,7726,10817,15351,0.068,550
2019-09-30T12:57:57,42.805,6.029,CST-1368DR,7726,10812,15344,0.070,551
2019-09-30T13:00:59,42.805,6.029,CST-1368DR,7726,10817,15351,0.068,551
2019-09-30T13:04:00,42.805,6.029,CST-1368DR,7726,10819,15354,0.068,551
2019-09-30T13:07:02,42.805,6.029,CST-1368DR,7726,10815,15348,0.069,551
2019-09-30T13:10:04,42.805,6.029,CST-1368DR,7725,10815,15350,0.069,551
2019-09-30T13:13:05,42.805,6.029,CST-1368DR,7726,10817,15352,0.068,551
2019-09-30T13:16:07,42.805,6.029,CST-1368DR,7726,10815,15349,0.069,551
2019-09-30T13:19:09,42.805,6.029,CST-1368DR,7726,10818,15353,0.068,551
2019-09-30T13:22:10,42.805,6.029,CST-1368DR,7726,10818,15352,0.068,551
2019-09-30T13:25:12,42.805,6.029,CST-1368DR,7725,10816,15352,0.068,551
2019-09-30T13:28:13,42.805,6.029,CST-1368DR,7725,10815,15350,0.069,551
2019-09-30T13:31:15,42.805,6.029,CST-1368DR,7725,10814,15349,0.069,551
2019-09-30T13:34:17,42.805,6.029,CST-1368DR,7725,10812,15346,0.070,551
2019-09-30T13:37:18,42.805,6.029,CST-1368DR,7725,10816,15351,0.068,551
2019-09-30T13:40:20,42.805,6.029,CST-1368DR,7725,10817,15353,0.068,551
2019-09-30T13:43:22,42.805,6.029,CST-1368DR,7725,10816,15351,0.068,551
2019-09-30T13:46:23,42.805,6.029,CST-1368DR,7725,10815,15351,0.068,551
2019-09-30T13:49:25,42.805,6.029,CST-1368DR,7725,10816,15351,0.068,550
2019-09-30T13:52:26,42.805,6.029,CST-1368DR,7725,10816,15352,0.068,551
2019-09-30T13:55:28,42.805,6.029,CST-1368DR,7725,10817,15354,0.068,551
2019-09-30T13:58:30,42.805,6.029,CST-1368DR,7725,10816,15352,0.068,551
2019-09-30T14:01:32,42.805,6.029,CST-1368DR,7725,10814,15349,0.069,551
2019-09-30T14:04:34,42.805,6.029,CST-1368DR,7725,10819,15355,0.067,551
2019-09-30T14:07:35,42.805,6.029,CST-1368DR,7725,10817,15353,0.068,550
2019-09-30T14:10:37,42.805,6.029,CST-1368DR,7725,10815,15350,0.069,550
2019-09-30T14:13:38,42.805,6.029,CST-1368DR,7725,10816,15352,0.068,551
2019-09-30T14:16:40,42.805,6.029,CST-1368DR,7725,10816,15351,0.068,551
2019-09-30T14:19:42,42.805,6.029,CST-1368DR,7725,10815,15350,0.069,551
2019-09-30T14:22:43,42.805,6.029,CST-1368DR,7725,10816,15351,0.068,551
2019-09-30T14:25:45,42.805,6.029,CST-1368DR,7725,10815,15351,0.068,551
2019-09-30T14:28:47,42.805,6.029,CST-1368DR,7725,10813,15348,0.069,551
2019-09-30T14:31:48,42.805,6.029,CST-1368DR,7725,10816,15351,0.068,551
2019-09-30T14:34:50,42.805,6.029,CST-1368DR,7725,10816,15351,0.068,551
2019-09-30T14:37:51,42.805,6.029,CST-1368DR,7725,10816,15351,0.068,551
2019-09-30T14:40:53,42.805,6.029,CST-1368DR,7725,10815,15350,0.069,551
2019-09-30T14:43:55,42.805,6.029,CST-1368DR,7725,10816,15351,0.068,551
2019-09-30T14:46:56,42.805,6.029,CST-1368DR,7725,10817,15353,0.068,551
2019-09-30T14:49:58,42.805,6.029,CST-1368DR,7725,10815,15350,0.069,551
2019-09-30T14:53:00,42.805,6.029,CST-1368DR,7725,10816,15351,0.068,550
2019-09-30T14:56:01,42.805,6.029,CST-1368DR,7725,10815,15350,0.069,551
2019-09-30T14:59:03,42.805,6.029,CST-1368DR,7725,10816,15351,0.068,551
2019-09-30T15:02:04,42.805,6.029,CST-1368DR,7725,10815,15351,0.068,551
2019-09-30T15:05:06,42.805,6.029,CST-1368DR,7725,10816,15351,0.068,551
2019-09-30T15:08:08,42.805,6.029,CST-1368DR,7725,10811,15344,0.070,551
2019-09-30T15:11:09,42.805,6.029,CST-1368DR,7725,10815,15350,0.069,551
2019-09-30T15:14:11,42.805,6.029,CST-1368DR,7725,10814,15349,0.069,551
2019-09-30T15:17:13,42.805,6.029,CST-1368DR,7725,10813,15348,0.069,551
2019-09-30T15:20:14,42.805,6.029,CST-1368DR,7725,10817,15353,0.068,551
2019-09-30T15:23:16,42.805,6.029,CST-1368DR,7725,10815,15350,0.069,551
2019-09-30T15:26:18,42.805,6.029,CST-1368DR,7725,10816,15351,0.068,551
2019-09-30T15:29:19,42.805,6.029,CST-1368DR,7724,10815,15352,0.068,551
2019-09-30T15:32:21,42.805,6.029,CST-1368DR,7724,10817,15354,0.068,551
2019-09-30T15:35:22,42.805,6.029,CST-1368DR,7725,10817,15354,0.068,551
2019-09-30T15:38:24,42.805,6.029,CST-1368DR,7725,10816,15351,0.068,551
2019-09-30T15:41:26,42.805,6.029,CST-1368DR,7725,10817,15353,0.068,551
2019-09-30T15:44:27,42.805,6.029,CST-1368DR,7724,10817,15354,0.068,551
2019-09-30T15:47:29,42.805,6.029,CST-1368DR,7724,10817,15354,0.068,551
2019-09-30T15:50:31,42.805,6.029,CST-1368DR,7724,10817,15355,0.067,551
2019-09-30T15:53:32,42.805,6.029,CST-1368DR,7724,10815,15353,0.068,551
2019-09-30T15:56:34,42.805,6.029,CST-1368DR,7724,10817,15355,0.067,551
2019-09-30T15:59:35,42.805,6.029,CST-1368DR,7724,10812,15347,0.070,551
2019-09-30T16:02:37,42.805,6.029,CST-1368DR,7724,10813,15349,0.069,551
2019-09-30T16:05:39,42.805,6.029,CST-1368DR,7724,10815,15352,0.068,551
2019-09-30T16:08:40,42.805,6.029,CST-1368DR,7724,10815,15352,0.068,551
2019-09-30T16:11:42,42.805,6.029,CST-1368DR,7724,10816,15354,0.068,550
2019-09-30T16:14:44,42.805,6.029,CST-1368DR,7724,10817,15355,0.067,551
2019-09-30T16:17:45,42.805,6.029,CST-1368DR,7724,10813,15350,0.069,551
2019-09-30T16:20:47,42.805,6.029,CST-1368DR,7724,10817,15354,0.068,550
2019-09-30T16:23:48,42.805,6.029,CST-1368DR,7724,10816,15353,0.068,551
2019-09-30T16:26:50,42.805,6.029,CST-1368DR,7724,10812,15348,0.069,551
2019-09-30T16:29:52,42.805,6.029,CST-1368DR,7724,10816,15353,0.068,550
2019-09-30T16:32:53,42.805,6.029,CST-1368DR,7724,10815,15352,0.068,551
2019-09-30T16:35:55,42.805,6.029,CST-1368DR,7724,10812,15348,0.069,551
2019-09-30T16:38:57,42.805,6.029,CST-1368DR,7724,10813,15349,0.069,550